Time,TemperatureF,DewpointF,PressureIn,WindDirection,WindDirectionDegrees,WindSpeedMPH,WindSpeedGustMPH,Humidity,HourlyPrecipIn,Conditions,Clouds,dailyrainin,SoftwareType,DateUTC
2013-07-04 00:01:00,72.6,72.0,30.19,SW,217,0.0,1.0,98,0.00,,,0.00,Wunderground v.1.15,2013-07-04 04:01:00,
2013-07-04 00:02:00,72.6,72.0,30.19,SW,217,0.0,1.0,98,0.00,,,0.00,Wunderground v.1.15,2013-07-04 04:02:00,
2013-07-04 00:03:00,72.6,72.0,30.20,SW,217,0.0,1.0,98,0.00,,,0.00,Wunderground v.1.15,2013-07-04 04:03:00,
2013-07-04 00:05:00,72.6,72.0,30.20,SW,224,0.0,1.0,98,0.00,,,0.00,Wunderground v.1.15,2013-07-04 04:05:00,
2013-07-04 00:10:00,72.7,72.1,30.19,SW,218,0.0,2.0,98,0.00,,,0.00,Wunderground v.1.15,2013-07-04 04:10:00,
2013-07-04 00:16:00,72.7,72.1,30.19,SW,224,1.0,1.0,98,0.00,,,0.00,Wunderground v.1.15,2013-07-04 04:16:00,
2013-07-04 00:21:00,72.8,72.2,30.20,SW,224,1.0,2.0,98,0.00,,,0.00,Wunderground v.1.15,2013-07-04 04:21:00,
2013-07-04 00:27:00,72.9,72.0,30.20,SW,229,1.0,1.0,97,0.00,,,0.00,Wunderground v.1.15,2013-07-04 04:27:00,
2013-07-04 00:33:00,72.8,71.9,30.20,SSW,212,0.0,2.0,97,0.00,,,0.00,Wunderground v.1.15,2013-07-04 04:33:00,
2013-07-04 00:39:00,72.9,72.0,30.20,SW,226,0.0,1.0,97,0.00,,,0.00,Wunderground v.1.15,2013-07-04 04:39:00,
2013-07-04 00:45:00,73.0,72.1,30.20,SW,224,1.0,3.0,97,0.00,,,0.00,Wunderground v.1.15,2013-07-04 04:45:00,
2013-07-04 00:51:00,73.1,72.2,30.20,SW,218,1.0,2.0,97,0.00,,,0.00,Wunderground v.1.15,2013-07-04 04:51:00,
2013-07-04 00:57:00,73.1,72.2,30.20,SSW,200,1.0,1.0,97,0.00,,,0.00,Wunderground v.1.15,2013-07-04 04:57:00,
2013-07-04 01:02:00,73.2,72.3,30.20,SW,228,1.0,2.0,97,0.00,,,0.00,Wunderground v.1.15,2013-07-04 05:02:00,
2013-07-04 01:08:00,73.1,72.2,30.20,SSW,195,1.0,1.0,97,0.00,,,0.00,Wunderground v.1.15,2013-07-04 05:08:00,
2013-07-04 01:14:00,73.1,72.2,30.20,ESE,108,1.0,3.0,97,0.00,,,0.00,Wunderground v.1.15,2013-07-04 05:14:00,
2013-07-04 01:20:00,73.1,72.2,30.20,SE,125,1.0,1.0,97,0.00,,,0.00,Wunderground v.1.15,2013-07-04 05:20:00,
2013-07-04 01:26:00,73.1,72.2,30.20,SW,221,1.0,3.0,97,0.00,,,0.00,Wunderground v.1.15,2013-07-04 05:26:00,
2013-07-04 01:32:00,73.0,72.1,30.20,SSE,152,1.0,1.0,97,0.00,,,0.00,Wunderground v.1.15,2013-07-04 05:32:00,
2013-07-04 01:38:00,73.0,72.1,30.20,SSW,207,1.0,1.0,97,0.00,,,0.00,Wunderground v.1.15,2013-07-04 05:38:00,
2013-07-04 01:43:00,73.0,72.1,30.20,SW,217,1.0,2.0,97,0.00,,,0.00,Wunderground v.1.15,2013-07-04 05:43:00,
2013-07-04 01:49:00,73.1,71.9,30.20,SSW,211,1.0,5.0,96,0.00,,,0.00,Wunderground v.1.15,2013-07-04 05:49:00,
2013-07-04 01:55:00,73.1,71.9,30.20,SSW,210,1.0,5.0,96,0.00,,,0.00,Wunderground v.1.15,2013-07-04 05:55:00,
2013-07-04 02:01:00,73.1,71.9,30.20,SSW,211,1.0,2.0,96,0.00,,,0.00,Wunderground v.1.15,2013-07-04 06:01:00,
2013-07-04 02:07:00,73.0,71.8,30.20,South,181,1.0,2.0,96,0.00,,,0.00,Wunderground v.1.15,2013-07-04 06:07:00,
2013-07-04 02:13:00,72.9,71.7,30.20,SSW,203,1.0,2.0,96,0.00,,,0.00,Wunderground v.1.15,2013-07-04 06:13:00,
2013-07-04 02:19:00,72.9,71.7,30.20,SW,217,1.0,4.0,96,0.00,,,0.00,Wunderground v.1.15,2013-07-04 06:19:00,
2013-07-04 02:25:00,72.9,71.7,30.20,SSW,200,1.0,4.0,96,0.00,,,0.00,Wunderground v.1.15,2013-07-04 06:25:00,
2013-07-04 02:31:00,72.8,71.6,30.20,SW,215,0.0,1.0,96,0.00,,,0.00,Wunderground v.1.15,2013-07-04 06:31:00,
2013-07-04 02:37:00,72.8,71.6,30.20,SW,214,0.0,1.0,96,0.00,,,0.00,Wunderground v.1.15,2013-07-04 06:37:00,
2013-07-04 02:43:00,72.8,71.6,30.20,SW,231,1.0,2.0,96,0.00,,,0.00,Wunderground v.1.15,2013-07-04 06:43:00,
2013-07-04 02:48:00,72.8,71.6,30.19,SW,217,1.0,1.0,96,0.00,,,0.00,Wunderground v.1.15,2013-07-04 06:48:00,
2013-07-04 02:54:00,72.9,71.7,30.19,SSW,212,1.0,3.0,96,0.00,,,0.00,Wunderground v.1.15,2013-07-04 06:54:00,
2013-07-04 03:00:00,72.9,71.7,30.19,SSW,212,0.0,1.0,96,0.00,,,0.00,Wunderground v.1.15,2013-07-04 07:00:00,
2013-07-04 03:06:00,72.8,71.6,30.19,SW,225,0.0,1.0,96,0.00,,,0.00,Wunderground v.1.15,2013-07-04 07:06:00,
2013-07-04 03:12:00,72.8,71.6,30.19,SW,232,0.0,1.0,96,0.00,,,0.00,Wunderground v.1.15,2013-07-04 07:12:00,
2013-07-04 03:18:00,72.8,71.6,30.19,SW,224,0.0,1.0,96,0.00,,,0.00,Wunderground v.1.15,2013-07-04 07:18:00,
2013-07-04 03:24:00,72.8,71.6,30.18,SW,224,0.0,1.0,96,0.00,,,0.00,Wunderground v.1.15,2013-07-04 07:24:00,
2013-07-04 03:30:00,72.8,71.9,30.18,SW,218,0.0,1.0,97,0.00,,,0.00,Wunderground v.1.15,2013-07-04 07:30:00,
2013-07-04 03:36:00,72.8,71.9,30.18,SW,219,0.0,1.0,97,0.00,,,0.00,Wunderground v.1.15,2013-07-04 07:36:00,
2013-07-04 03:42:00,72.9,72.0,30.18,SW,219,0.0,1.0,97,0.00,,,0.00,Wunderground v.1.15,2013-07-04 07:42:00,
2013-07-04 03:48:00,72.9,71.7,30.19,SW,224,0.0,1.0,96,0.00,,,0.00,Wunderground v.1.15,2013-07-04 07:48:00,
2013-07-04 03:54:00,73.0,71.8,30.19,SW,231,0.0,1.0,96,0.00,,,0.00,Wunderground v.1.15,2013-07-04 07:54:00,
2013-07-04 04:00:00,73.0,71.8,30.19,SE,137,1.0,1.0,96,0.00,,,0.00,Wunderground v.1.15,2013-07-04 08:00:00,
2013-07-04 04:06:00,73.1,71.9,30.19,SW,226,1.0,1.0,96,0.00,,,0.00,Wunderground v.1.15,2013-07-04 08:06:00,
2013-07-04 04:12:00,73.2,72.0,30.19,SSW,210,1.0,2.0,96,0.00,,,0.00,Wunderground v.1.15,2013-07-04 08:12:00,
2013-07-04 04:18:00,73.2,72.0,30.19,SW,214,1.0,1.0,96,0.00,,,0.00,Wunderground v.1.15,2013-07-04 08:18:00,
2013-07-04 04:24:00,73.1,71.9,30.19,SW,221,1.0,1.0,96,0.00,,,0.00,Wunderground v.1.15,2013-07-04 08:24:00,
2013-07-04 04:30:00,73.0,71.8,30.19,SW,215,0.0,2.0,96,0.00,,,0.00,Wunderground v.1.15,2013-07-04 08:30:00,
2013-07-04 04:36:00,72.9,71.7,30.19,SSW,210,1.0,1.0,96,0.00,,,0.00,Wunderground v.1.15,2013-07-04 08:36:00,
2013-07-04 04:42:00,72.8,71.6,30.19,SSW,207,1.0,2.0,96,0.00,,,0.00,Wunderground v.1.15,2013-07-04 08:42:00,
2013-07-04 04:48:00,72.8,71.6,30.19,SSW,211,1.0,1.0,96,0.00,,,0.00,Wunderground v.1.15,2013-07-04 08:48:00,
2013-07-04 04:54:00,72.7,71.5,30.19,SW,215,1.0,1.0,96,0.00,,,0.00,Wunderground v.1.15,2013-07-04 08:54:00,
2013-07-04 05:00:00,72.7,71.8,30.19,SW,221,0.0,1.0,97,0.00,,,0.00,Wunderground v.1.15,2013-07-04 09:00:00,
2013-07-04 05:05:00,72.7,71.8,30.19,SW,221,0.0,1.0,97,0.00,,,0.00,Wunderground v.1.15,2013-07-04 09:05:00,
2013-07-04 05:11:00,72.7,71.8,30.20,SW,221,0.0,1.0,97,0.00,,,0.00,Wunderground v.1.15,2013-07-04 09:11:00,
2013-07-04 05:17:00,72.7,71.8,30.20,SW,221,0.0,1.0,97,0.00,,,0.00,Wunderground v.1.15,2013-07-04 09:17:00,
2013-07-04 05:23:00,72.6,71.7,30.20,SW,218,0.0,1.0,97,0.00,,,0.00,Wunderground v.1.15,2013-07-04 09:23:00,
2013-07-04 05:29:00,72.6,71.7,30.20,SW,218,0.0,1.0,97,0.00,,,0.00,Wunderground v.1.15,2013-07-04 09:29:00,
2013-07-04 05:35:00,72.5,71.6,30.20,SW,219,0.0,1.0,97,0.00,,,0.00,Wunderground v.1.15,2013-07-04 09:35:00,
2013-07-04 05:41:00,72.5,71.6,30.20,SW,218,0.0,1.0,97,0.00,,,0.01,Wunderground v.1.15,2013-07-04 09:41:00,
2013-07-04 05:47:00,72.4,71.5,30.20,SW,218,0.0,1.0,97,0.00,,,0.01,Wunderground v.1.15,2013-07-04 09:47:00,
2013-07-04 05:53:00,72.5,71.6,30.20,SW,218,0.0,1.0,97,0.00,,,0.01,Wunderground v.1.15,2013-07-04 09:53:00,
2013-07-04 05:59:00,72.5,71.6,30.20,SW,218,0.0,1.0,97,0.00,,,0.01,Wunderground v.1.15,2013-07-04 09:59:00,
2013-07-04 06:04:00,72.5,71.9,30.20,SW,223,0.0,1.0,98,0.00,,,0.01,Wunderground v.1.15,2013-07-04 10:04:00,
2013-07-04 06:10:00,72.5,71.9,30.20,SSW,210,0.0,1.0,98,0.00,,,0.01,Wunderground v.1.15,2013-07-04 10:10:00,
2013-07-04 06:16:00,72.5,71.9,30.20,SW,231,0.0,1.0,98,0.00,,,0.01,Wunderground v.1.15,2013-07-04 10:16:00,
2013-07-04 06:22:00,72.5,71.6,30.20,SW,218,0.0,2.0,97,0.00,,,0.01,Wunderground v.1.15,2013-07-04 10:22:00,
2013-07-04 06:28:00,72.5,71.6,30.20,SW,218,0.0,0.0,97,0.00,,,0.01,Wunderground v.1.15,2013-07-04 10:28:00,
2013-07-04 06:34:00,72.4,71.5,30.20,SW,218,0.0,1.0,97,0.00,,,0.01,Wunderground v.1.15,2013-07-04 10:34:00,
2013-07-04 06:40:00,72.4,71.8,30.21,SW,225,0.0,0.0,98,0.00,,,0.01,Wunderground v.1.15,2013-07-04 10:40:00,
2013-07-04 06:46:00,72.5,71.9,30.21,SW,225,0.0,1.0,98,0.00,,,0.01,Wunderground v.1.15,2013-07-04 10:46:00,
2013-07-04 06:51:00,72.5,71.9,30.21,SW,225,0.0,0.0,98,0.00,,,0.01,Wunderground v.1.15,2013-07-04 10:51:00,
2013-07-04 06:57:00,72.5,71.9,30.21,SW,225,0.0,0.0,98,0.00,,,0.01,Wunderground v.1.15,2013-07-04 10:57:00,
2013-07-04 07:03:00,72.5,71.9,30.21,SW,225,0.0,0.0,98,0.00,,,0.01,Wunderground v.1.15,2013-07-04 11:03:00,
2013-07-04 07:09:00,72.5,71.9,30.21,SW,226,0.0,0.0,98,0.00,,,0.01,Wunderground v.1.15,2013-07-04 11:09:00,
2013-07-04 07:15:00,72.6,72.0,30.21,SW,225,0.0,0.0,98,0.00,,,0.01,Wunderground v.1.15,2013-07-04 11:15:00,
2013-07-04 07:21:00,72.9,72.3,30.21,SW,225,0.0,1.0,98,0.00,,,0.01,Wunderground v.1.15,2013-07-04 11:21:00,
2013-07-04 07:27:00,73.2,72.6,30.22,SW,225,0.0,0.0,98,0.00,,,0.01,Wunderground v.1.15,2013-07-04 11:27:00,
2013-07-04 07:33:00,73.5,72.9,30.22,South,179,0.0,1.0,98,0.00,,,0.01,Wunderground v.1.15,2013-07-04 11:33:00,
2013-07-04 07:39:00,73.8,72.9,30.22,SSW,211,0.0,1.0,97,0.00,,,0.01,Wunderground v.1.15,2013-07-04 11:39:00,
2013-07-04 07:45:00,74.1,72.9,30.22,SW,219,1.0,2.0,96,0.00,,,0.01,Wunderground v.1.15,2013-07-04 11:45:00,
2013-07-04 07:51:00,74.5,73.0,30.22,SSW,194,1.0,2.0,95,0.00,,,0.01,Wunderground v.1.15,2013-07-04 11:51:00,
2013-07-04 07:57:00,74.8,73.3,30.22,SSE,165,1.0,3.0,95,0.00,,,0.01,Wunderground v.1.15,2013-07-04 11:57:00,
2013-07-04 08:03:00,75.0,73.2,30.22,SW,233,1.0,3.0,94,0.00,,,0.01,Wunderground v.1.15,2013-07-04 12:03:00,
2013-07-04 08:08:00,74.9,73.1,30.23,WSW,257,1.0,2.0,94,0.00,,,0.02,Wunderground v.1.15,2013-07-04 12:08:00,
2013-07-04 08:14:00,74.6,73.1,30.23,SW,231,1.0,2.0,95,0.09,,,0.03,Wunderground v.1.15,2013-07-04 12:14:00,
2013-07-04 08:19:00,74.6,73.1,30.23,SW,219,1.0,1.0,95,0.07,,,0.03,Wunderground v.1.15,2013-07-04 12:19:00,
2013-07-04 08:25:00,74.4,72.9,30.23,West,269,1.0,1.0,95,0.05,,,0.04,Wunderground v.1.15,2013-07-04 12:25:00,
2013-07-04 08:31:00,74.4,73.2,30.23,WSW,257,1.0,1.0,96,0.05,,,0.04,Wunderground v.1.15,2013-07-04 12:31:00,
2013-07-04 08:37:00,74.4,73.2,30.23,SW,222,0.0,1.0,96,0.04,,,0.04,Wunderground v.1.15,2013-07-04 12:37:00,
2013-07-04 08:43:00,74.5,73.3,30.23,SW,231,1.0,2.0,96,0.00,,,0.04,Wunderground v.1.15,2013-07-04 12:43:00,
2013-07-04 08:49:00,75.3,74.1,30.23,SW,222,1.0,2.0,96,0.00,,,0.04,Wunderground v.1.15,2013-07-04 12:49:00,
2013-07-04 08:55:00,75.8,73.9,30.23,WSW,253,1.0,2.0,94,0.00,,,0.04,Wunderground v.1.15,2013-07-04 12:55:00,
2013-07-04 09:01:00,76.9,74.7,30.23,SW,232,1.0,1.0,93,0.00,,,0.04,Wunderground v.1.15,2013-07-04 13:01:00,
2013-07-04 09:07:00,77.1,74.9,30.23,SW,231,1.0,1.0,93,0.00,,,0.04,Wunderground v.1.15,2013-07-04 13:07:00,
2013-07-04 09:13:00,77.2,74.0,30.23,SW,219,1.0,3.0,90,0.00,,,0.04,Wunderground v.1.15,2013-07-04 13:13:00,
2013-07-04 09:19:00,77.0,74.2,30.23,SW,217,1.0,3.0,91,0.00,,,0.05,Wunderground v.1.15,2013-07-04 13:19:00,
2013-07-04 09:25:00,76.7,73.9,30.23,SSE,155,1.0,3.0,91,0.00,,,0.05,Wunderground v.1.15,2013-07-04 13:25:00,
2013-07-04 09:31:00,76.7,73.9,30.23,SW,233,1.0,3.0,91,0.00,,,0.05,Wunderground v.1.15,2013-07-04 13:31:00,
2013-07-04 09:37:00,76.9,73.7,30.23,SW,219,1.0,3.0,90,0.00,,,0.05,Wunderground v.1.15,2013-07-04 13:37:00,
2013-07-04 09:43:00,77.2,74.4,30.23,WSW,250,2.0,3.0,91,0.00,,,0.05,Wunderground v.1.15,2013-07-04 13:43:00,
2013-07-04 09:49:00,77.6,74.4,30.23,ESE,122,1.0,2.0,90,0.00,,,0.05,Wunderground v.1.15,2013-07-04 13:49:00,
2013-07-04 09:54:00,77.9,74.1,30.23,SW,235,2.0,7.0,88,0.00,,,0.05,Wunderground v.1.15,2013-07-04 13:54:00,
2013-07-04 10:00:00,78.4,74.2,30.23,SSW,211,2.0,2.0,87,0.00,,,0.05,Wunderground v.1.15,2013-07-04 14:00:00,
2013-07-04 10:06:00,78.9,75.0,30.23,SSW,207,1.0,5.0,88,0.00,,,0.05,Wunderground v.1.15,2013-07-04 14:06:00,
2013-07-04 10:12:00,79.0,74.5,30.23,SSE,150,2.0,5.0,86,0.00,,,0.05,Wunderground v.1.15,2013-07-04 14:12:00,
2013-07-04 10:18:00,79.2,74.3,30.23,SSW,207,2.0,2.0,85,0.00,,,0.05,Wunderground v.1.15,2013-07-04 14:18:00,
2013-07-04 10:24:00,79.0,74.1,30.23,SW,228,2.0,6.0,85,0.00,,,0.05,Wunderground v.1.15,2013-07-04 14:24:00,
2013-07-04 10:30:00,78.5,74.0,30.22,West,259,2.0,2.0,86,0.00,,,0.05,Wunderground v.1.15,2013-07-04 14:30:00,
2013-07-04 10:36:00,78.8,73.9,30.22,SSE,158,1.0,2.0,85,0.00,,,0.05,Wunderground v.1.15,2013-07-04 14:36:00,
2013-07-04 10:42:00,78.9,74.0,30.23,SSW,210,1.0,1.0,85,0.00,,,0.05,Wunderground v.1.15,2013-07-04 14:42:00,
2013-07-04 10:47:00,79.2,73.9,30.23,WSW,257,1.0,2.0,84,0.00,,,0.05,Wunderground v.1.15,2013-07-04 14:47:00,
2013-07-04 10:53:00,79.4,73.4,30.23,WSW,238,1.0,4.0,82,0.00,,,0.05,Wunderground v.1.15,2013-07-04 14:53:00,
2013-07-04 10:59:00,80.1,74.5,30.23,WSW,242,2.0,2.0,83,0.00,,,0.05,Wunderground v.1.15,2013-07-04 14:59:00,
2013-07-04 11:05:00,81.0,74.6,30.23,SSW,212,1.0,2.0,81,0.00,,,0.05,Wunderground v.1.15,2013-07-04 15:05:00,
2013-07-04 11:11:00,82.0,74.8,30.23,WSW,252,2.0,3.0,79,0.00,,,0.05,Wunderground v.1.15,2013-07-04 15:11:00,
2013-07-04 11:17:00,82.2,74.3,30.23,SW,221,2.0,2.0,77,0.00,,,0.05,Wunderground v.1.15,2013-07-04 15:17:00,
2013-07-04 11:22:00,82.6,74.3,30.22,South,174,1.0,2.0,76,0.00,,,0.05,Wunderground v.1.15,2013-07-04 15:22:00,
2013-07-04 11:28:00,82.8,73.7,30.23,SE,146,1.0,1.0,74,0.00,,,0.05,Wunderground v.1.15,2013-07-04 15:28:00,
2013-07-04 11:34:00,82.7,74.0,30.23,WSW,241,1.0,2.0,75,0.00,,,0.05,Wunderground v.1.15,2013-07-04 15:34:00,
2013-07-04 11:40:00,82.8,74.1,30.22,SSW,210,1.0,3.0,75,0.00,,,0.05,Wunderground v.1.15,2013-07-04 15:40:00,
2013-07-04 11:46:00,83.4,74.6,30.22,WSW,242,1.0,1.0,75,0.00,,,0.05,Wunderground v.1.15,2013-07-04 15:46:00,
2013-07-04 11:52:00,83.2,73.6,30.22,SW,217,2.0,3.0,73,0.00,,,0.05,Wunderground v.1.15,2013-07-04 15:52:00,
2013-07-04 11:58:00,84.3,75.9,30.22,ESE,110,1.0,1.0,76,0.00,,,0.05,Wunderground v.1.15,2013-07-04 15:58:00,
2013-07-04 12:03:00,84.0,75.2,30.22,West,267,1.0,3.0,75,0.00,,,0.05,Wunderground v.1.15,2013-07-04 16:03:00,
2013-07-04 12:09:00,84.3,74.7,30.22,SW,235,1.0,1.0,73,0.00,,,0.05,Wunderground v.1.15,2013-07-04 16:09:00,
2013-07-04 12:15:00,84.6,74.6,30.22,ESE,113,1.0,2.0,72,0.00,,,0.05,Wunderground v.1.15,2013-07-04 16:15:00,
2013-07-04 12:21:00,83.8,73.8,30.22,ESE,113,1.0,4.0,72,0.00,,,0.05,Wunderground v.1.15,2013-07-04 16:21:00,
2013-07-04 12:27:00,84.1,74.5,30.22,South,190,1.0,2.0,73,0.00,,,0.05,Wunderground v.1.15,2013-07-04 16:27:00,
2013-07-04 12:33:00,84.4,74.4,30.21,WSW,249,1.0,4.0,72,0.00,,,0.05,Wunderground v.1.15,2013-07-04 16:33:00,
2013-07-04 12:39:00,84.5,74.1,30.21,SW,233,2.0,5.0,71,0.00,,,0.05,Wunderground v.1.15,2013-07-04 16:39:00,
2013-07-04 12:45:00,84.8,73.5,30.21,ESE,113,1.0,5.0,69,0.00,,,0.05,Wunderground v.1.15,2013-07-04 16:45:00,
2013-07-04 12:51:00,84.9,74.0,30.21,SSE,162,2.0,3.0,70,0.00,,,0.05,Wunderground v.1.15,2013-07-04 16:51:00,
2013-07-04 12:57:00,85.3,74.0,30.21,SE,142,2.0,2.0,69,0.00,,,0.05,Wunderground v.1.15,2013-07-04 16:57:00,
2013-07-04 13:03:00,85.7,75.6,30.21,ESE,118,2.0,2.0,72,0.00,,,0.05,Wunderground v.1.15,2013-07-04 17:03:00,
2013-07-04 13:09:00,85.9,74.1,30.20,SSW,207,2.0,3.0,68,0.00,,,0.05,Wunderground v.1.15,2013-07-04 17:09:00,
2013-07-04 13:15:00,86.1,73.9,30.20,South,179,1.0,3.0,67,0.00,,,0.05,Wunderground v.1.15,2013-07-04 17:15:00,
2013-07-04 13:21:00,86.0,73.3,30.20,SSW,203,2.0,3.0,66,0.00,,,0.05,Wunderground v.1.15,2013-07-04 17:21:00,
2013-07-04 13:27:00,86.1,74.3,30.19,SSW,203,1.0,2.0,68,0.00,,,0.05,Wunderground v.1.15,2013-07-04 17:27:00,
2013-07-04 13:33:00,85.9,73.2,30.19,SSW,200,2.0,2.0,66,0.00,,,0.05,Wunderground v.1.15,2013-07-04 17:33:00,
2013-07-04 13:39:00,86.6,75.2,30.19,WSW,238,1.0,2.0,69,0.00,,,0.05,Wunderground v.1.15,2013-07-04 17:39:00,
2013-07-04 13:45:00,86.7,73.1,30.19,SE,139,1.0,2.0,64,0.00,,,0.05,Wunderground v.1.15,2013-07-04 17:45:00,
2013-07-04 13:51:00,86.6,74.8,30.18,SW,217,2.0,4.0,68,0.00,,,0.05,Wunderground v.1.15,2013-07-04 17:51:00,
2013-07-04 13:57:00,86.9,73.3,30.18,SW,224,1.0,2.0,64,0.00,,,0.05,Wunderground v.1.15,2013-07-04 17:57:00,
2013-07-04 14:03:00,86.8,72.7,30.18,SSW,210,1.0,4.0,63,0.00,,,0.05,Wunderground v.1.15,2013-07-04 18:03:00,
2013-07-04 14:09:00,86.1,72.5,30.18,SW,228,2.0,4.0,64,0.00,,,0.05,Wunderground v.1.15,2013-07-04 18:09:00,
2013-07-04 14:15:00,86.1,72.0,30.18,WSW,240,2.0,4.0,63,0.00,,,0.05,Wunderground v.1.15,2013-07-04 18:15:00,
2013-07-04 14:20:00,86.8,73.2,30.18,SE,143,1.0,2.0,64,0.00,,,0.05,Wunderground v.1.15,2013-07-04 18:20:00,
2013-07-04 14:26:00,86.9,75.1,30.18,SSW,207,1.0,2.0,68,0.00,,,0.05,Wunderground v.1.15,2013-07-04 18:26:00,
2013-07-04 14:32:00,87.3,74.5,30.18,SSE,153,2.0,2.0,66,0.00,,,0.05,Wunderground v.1.15,2013-07-04 18:32:00,
2013-07-04 14:38:00,87.1,72.5,30.18,SE,140,2.0,2.0,62,0.00,,,0.05,Wunderground v.1.15,2013-07-04 18:38:00,
2013-07-04 14:44:00,86.7,73.1,30.18,SW,229,1.0,3.0,64,0.00,,,0.05,Wunderground v.1.15,2013-07-04 18:44:00,
2013-07-04 14:50:00,87.0,73.8,30.17,SW,233,2.0,3.0,65,0.00,,,0.05,Wunderground v.1.15,2013-07-04 18:50:00,
2013-07-04 14:56:00,85.7,74.4,30.18,East,85,3.0,6.0,69,0.00,,,0.06,Wunderground v.1.15,2013-07-04 18:56:00,
2013-07-04 15:02:00,82.9,75.7,30.17,SE,125,3.0,6.0,79,0.00,,,0.06,Wunderground v.1.15,2013-07-04 19:02:00,
2013-07-04 15:08:00,82.6,75.4,30.17,SE,142,1.0,2.0,79,0.00,,,0.06,Wunderground v.1.15,2013-07-04 19:08:00,
2013-07-04 15:10:00,82.8,76.0,30.17,ENE,67,1.0,6.0,80,0.00,,,0.06,Wunderground v.1.15,2013-07-04 19:10:00,
2013-07-04 15:16:00,83.1,76.7,30.17,SE,128,2.0,6.0,81,0.00,,,0.06,Wunderground v.1.15,2013-07-04 19:16:00,
2013-07-04 15:22:00,83.6,77.1,30.17,SSE,150,2.0,3.0,81,0.00,,,0.06,Wunderground v.1.15,2013-07-04 19:22:00,
2013-07-04 15:28:00,84.4,75.6,30.17,SSE,154,2.0,2.0,75,0.00,,,0.06,Wunderground v.1.15,2013-07-04 19:28:00,
2013-07-04 15:33:00,84.4,76.0,30.17,SE,134,2.0,3.0,76,0.00,,,0.06,Wunderground v.1.15,2013-07-04 19:33:00,
2013-07-04 15:38:00,84.1,74.5,30.17,SE,124,2.0,2.0,73,0.00,,,0.06,Wunderground v.1.15,2013-07-04 19:38:00,
2013-07-04 15:44:00,83.6,74.8,30.17,ESE,109,2.0,2.0,75,0.00,,,0.06,Wunderground v.1.15,2013-07-04 19:44:00,
2013-07-04 15:50:00,83.4,73.4,30.17,SE,134,2.0,3.0,72,0.00,,,0.06,Wunderground v.1.15,2013-07-04 19:50:00,
2013-07-04 15:56:00,83.5,73.5,30.17,SSE,155,2.0,4.0,72,0.00,,,0.06,Wunderground v.1.15,2013-07-04 19:56:00,
2013-07-04 16:02:00,83.7,74.1,30.16,East,83,2.0,4.0,73,0.00,,,0.06,Wunderground v.1.15,2013-07-04 20:02:00,
2013-07-04 16:08:00,84.1,74.5,30.16,SSW,207,2.0,2.0,73,0.00,,,0.06,Wunderground v.1.15,2013-07-04 20:08:00,
2013-07-04 16:14:00,83.9,73.9,30.16,SE,134,2.0,5.0,72,0.00,,,0.06,Wunderground v.1.15,2013-07-04 20:14:00,
2013-07-04 16:19:00,84.2,74.6,30.16,SSE,153,2.0,2.0,73,0.00,,,0.06,Wunderground v.1.15,2013-07-04 20:19:00,
2013-07-04 16:25:00,84.4,73.5,30.15,South,191,2.0,4.0,70,0.00,,,0.06,Wunderground v.1.15,2013-07-04 20:25:00,
2013-07-04 16:31:00,84.3,74.3,30.15,SSE,150,3.0,6.0,72,0.00,,,0.06,Wunderground v.1.15,2013-07-04 20:31:00,
2013-07-04 16:37:00,84.6,75.0,30.15,SW,222,2.0,2.0,73,0.00,,,0.06,Wunderground v.1.15,2013-07-04 20:37:00,
2013-07-04 16:43:00,84.6,74.6,30.15,SSE,159,2.0,4.0,72,0.00,,,0.06,Wunderground v.1.15,2013-07-04 20:43:00,
2013-07-04 16:49:00,84.8,75.6,30.16,SE,131,3.0,3.0,74,0.00,,,0.06,Wunderground v.1.15,2013-07-04 20:49:00,
2013-07-04 16:55:00,84.6,75.8,30.15,NE,50,2.0,6.0,75,0.00,,,0.06,Wunderground v.1.15,2013-07-04 20:55:00,
2013-07-04 17:01:00,84.5,75.3,30.16,ENE,75,2.0,5.0,74,0.00,,,0.06,Wunderground v.1.15,2013-07-04 21:01:00,
2013-07-04 17:06:00,84.3,74.3,30.16,SW,235,2.0,2.0,72,0.00,,,0.06,Wunderground v.1.15,2013-07-04 21:06:00,
2013-07-04 17:12:00,83.5,72.7,30.18,SE,129,2.0,6.0,70,0.00,,,0.06,Wunderground v.1.15,2013-07-04 21:12:00,
2013-07-04 17:18:00,79.7,71.8,30.17,WSW,248,3.0,3.0,77,2.65,,,0.22,Wunderground v.1.15,2013-07-04 21:18:00,
2013-07-04 17:24:00,77.2,72.0,30.17,SW,218,2.0,3.0,84,0.16,,,0.25,Wunderground v.1.15,2013-07-04 21:24:00,
2013-07-04 17:30:00,76.6,72.4,30.16,SE,125,0.0,2.0,87,0.06,,,0.25,Wunderground v.1.15,2013-07-04 21:30:00,
2013-07-04 17:36:00,76.1,72.6,30.16,SW,219,0.0,2.0,89,0.04,,,0.25,Wunderground v.1.15,2013-07-04 21:36:00,
2013-07-04 17:42:00,76.5,73.3,30.15,SW,219,0.0,2.0,90,0.00,,,0.25,Wunderground v.1.15,2013-07-04 21:42:00,
2013-07-04 17:48:00,77.3,74.5,30.15,SW,220,0.0,2.0,91,0.00,,,0.25,Wunderground v.1.15,2013-07-04 21:48:00,
2013-07-04 17:54:00,78.3,75.1,30.16,West,271,0.0,2.0,90,0.00,,,0.25,Wunderground v.1.15,2013-07-04 21:54:00,
2013-07-04 18:00:00,78.6,74.7,30.16,NNE,12,0.0,2.0,88,0.00,,,0.25,Wunderground v.1.15,2013-07-04 22:00:00,
2013-07-04 18:06:00,79.0,75.5,30.17,NNE,12,0.0,0.0,89,0.00,,,0.25,Wunderground v.1.15,2013-07-04 22:06:00,
2013-07-04 18:12:00,79.2,75.3,30.17,WSW,245,0.0,1.0,88,0.00,,,0.25,Wunderground v.1.15,2013-07-04 22:12:00,
2013-07-04 18:18:00,79.4,75.9,30.17,WSW,245,0.0,0.0,89,0.00,,,0.25,Wunderground v.1.15,2013-07-04 22:18:00,
2013-07-04 18:24:00,79.6,76.1,30.16,WSW,245,0.0,0.0,89,0.00,,,0.25,Wunderground v.1.15,2013-07-04 22:24:00,
2013-07-04 18:30:00,79.2,76.0,30.17,WSW,245,0.0,0.0,90,0.00,,,0.25,Wunderground v.1.15,2013-07-04 22:30:00,
2013-07-04 18:35:00,78.6,75.8,30.17,WSW,244,0.0,0.0,91,0.00,,,0.25,Wunderground v.1.15,2013-07-04 22:35:00,
2013-07-04 18:41:00,78.4,75.9,30.17,WSW,244,0.0,0.0,92,0.00,,,0.25,Wunderground v.1.15,2013-07-04 22:41:00,
2013-07-04 18:47:00,78.3,75.8,30.16,WSW,245,0.0,0.0,92,0.00,,,0.25,Wunderground v.1.15,2013-07-04 22:47:00,
2013-07-04 18:52:00,78.1,75.9,30.16,WSW,245,0.0,0.0,93,0.00,,,0.25,Wunderground v.1.15,2013-07-04 22:52:00,
2013-07-04 18:58:00,77.5,75.3,30.17,WSW,245,0.0,0.0,93,0.00,,,0.25,Wunderground v.1.15,2013-07-04 22:58:00,
2013-07-04 19:04:00,77.3,75.4,30.17,WSW,245,0.0,0.0,94,0.00,,,0.25,Wunderground v.1.15,2013-07-04 23:04:00,
2013-07-04 19:10:00,77.3,75.4,30.17,WSW,256,0.0,0.0,94,0.00,,,0.25,Wunderground v.1.15,2013-07-04 23:10:00,
2013-07-04 19:16:00,77.1,75.2,30.17,West,274,0.0,0.0,94,0.00,,,0.25,Wunderground v.1.15,2013-07-04 23:16:00,
2013-07-04 19:22:00,77.0,75.1,30.17,West,274,0.0,0.0,94,0.00,,,0.25,Wunderground v.1.15,2013-07-04 23:22:00,
2013-07-04 19:28:00,77.0,75.1,30.18,West,274,0.0,0.0,94,0.00,,,0.25,Wunderground v.1.15,2013-07-04 23:28:00,
2013-07-04 19:34:00,76.8,74.9,30.18,West,274,0.0,0.0,94,0.00,,,0.25,Wunderground v.1.15,2013-07-04 23:34:00,
2013-07-04 19:40:00,76.5,74.3,30.18,WSW,253,0.0,0.0,93,0.00,,,0.25,Wunderground v.1.15,2013-07-04 23:40:00,
2013-07-04 19:46:00,76.4,74.2,30.18,WSW,253,0.0,0.0,93,0.00,,,0.25,Wunderground v.1.15,2013-07-04 23:46:00,
2013-07-04 19:52:00,76.3,74.1,30.18,WSW,253,0.0,0.0,93,0.00,,,0.25,Wunderground v.1.15,2013-07-04 23:52:00,
2013-07-04 19:58:00,76.2,74.3,30.18,WSW,253,0.0,0.0,94,0.00,,,0.25,Wunderground v.1.15,2013-07-04 23:58:00,
2013-07-04 20:04:00,76.1,74.2,30.18,WSW,253,0.0,0.0,94,0.00,,,0.25,Wunderground v.1.15,2013-07-05 00:04:00,
2013-07-04 20:10:00,75.8,74.3,30.18,WSW,253,0.0,0.0,95,0.00,,,0.25,Wunderground v.1.15,2013-07-05 00:10:00,
2013-07-04 20:16:00,75.5,74.3,30.19,WSW,254,0.0,0.0,96,0.00,,,0.25,Wunderground v.1.15,2013-07-05 00:16:00,
2013-07-04 20:22:00,75.3,74.1,30.19,WSW,255,0.0,0.0,96,0.00,,,0.25,Wunderground v.1.15,2013-07-05 00:22:00,
2013-07-04 20:28:00,75.1,73.9,30.19,WSW,255,0.0,0.0,96,0.00,,,0.25,Wunderground v.1.15,2013-07-05 00:28:00,
2013-07-04 20:34:00,75.0,74.1,30.19,WSW,254,0.0,0.0,97,0.00,,,0.25,Wunderground v.1.15,2013-07-05 00:34:00,
2013-07-04 20:40:00,74.9,74.0,30.19,WSW,255,0.0,0.0,97,0.00,,,0.25,Wunderground v.1.15,2013-07-05 00:40:00,
2013-07-04 20:45:00,74.8,73.9,30.18,WSW,254,0.0,0.0,97,0.00,,,0.25,Wunderground v.1.15,2013-07-05 00:45:00,
2013-07-04 20:51:00,74.6,73.7,30.18,WSW,255,0.0,0.0,97,0.00,,,0.25,Wunderground v.1.15,2013-07-05 00:51:00,
2013-07-04 20:57:00,74.4,73.5,30.18,WSW,254,0.0,0.0,97,0.00,,,0.25,Wunderground v.1.15,2013-07-05 00:57:00,
2013-07-04 21:03:00,74.2,73.3,30.18,WSW,255,0.0,0.0,97,0.00,,,0.25,Wunderground v.1.15,2013-07-05 01:03:00,
2013-07-04 21:09:00,74.0,73.1,30.18,WSW,255,0.0,0.0,97,0.00,,,0.25,Wunderground v.1.15,2013-07-05 01:09:00,
2013-07-04 21:15:00,73.8,72.9,30.18,WSW,255,0.0,0.0,97,0.00,,,0.25,Wunderground v.1.15,2013-07-05 01:15:00,
2013-07-04 21:21:00,73.6,72.7,30.18,WSW,255,0.0,0.0,97,0.00,,,0.25,Wunderground v.1.15,2013-07-05 01:21:00,
2013-07-04 21:27:00,73.4,72.5,30.18,WSW,255,0.0,0.0,97,0.00,,,0.25,Wunderground v.1.15,2013-07-05 01:27:00,
2013-07-04 21:32:00,73.3,72.7,30.18,WSW,255,0.0,0.0,98,0.00,,,0.25,Wunderground v.1.15,2013-07-05 01:32:00,
2013-07-04 21:38:00,73.2,72.6,30.18,WSW,254,0.0,0.0,98,0.00,,,0.25,Wunderground v.1.15,2013-07-05 01:38:00,
2013-07-04 21:44:00,73.1,72.5,30.18,WSW,254,0.0,0.0,98,0.00,,,0.25,Wunderground v.1.15,2013-07-05 01:44:00,
2013-07-04 21:50:00,72.9,72.3,30.18,WSW,255,0.0,0.0,98,0.00,,,0.25,Wunderground v.1.15,2013-07-05 01:50:00,
2013-07-04 21:56:00,72.8,72.2,30.19,WSW,255,0.0,0.0,98,0.00,,,0.25,Wunderground v.1.15,2013-07-05 01:56:00,
2013-07-04 22:02:00,72.7,72.1,30.20,WSW,255,0.0,0.0,98,0.00,,,0.25,Wunderground v.1.15,2013-07-05 02:02:00,
2013-07-04 22:08:00,72.6,72.0,30.20,WSW,255,0.0,0.0,98,0.00,,,0.25,Wunderground v.1.15,2013-07-05 02:08:00,
2013-07-04 22:14:00,72.5,71.9,30.20,WSW,255,0.0,0.0,98,0.00,,,0.25,Wunderground v.1.15,2013-07-05 02:14:00,
2013-07-04 22:20:00,72.4,71.8,30.21,WSW,255,0.0,0.0,98,0.00,,,0.25,Wunderground v.1.15,2013-07-05 02:20:00,
2013-07-04 22:26:00,72.4,71.8,30.21,WSW,254,0.0,0.0,98,0.00,,,0.25,Wunderground v.1.15,2013-07-05 02:26:00,
2013-07-04 22:32:00,72.3,71.7,30.21,WSW,255,0.0,0.0,98,0.00,,,0.25,Wunderground v.1.15,2013-07-05 02:32:00,
2013-07-04 22:38:00,72.3,71.7,30.21,WSW,255,0.0,0.0,98,0.00,,,0.25,Wunderground v.1.15,2013-07-05 02:38:00,
2013-07-04 22:44:00,72.3,71.7,30.21,WSW,255,0.0,0.0,98,0.00,,,0.25,Wunderground v.1.15,2013-07-05 02:44:00,
2013-07-04 22:50:00,72.2,71.6,30.20,WSW,255,0.0,0.0,98,0.00,,,0.25,Wunderground v.1.15,2013-07-05 02:50:00,
2013-07-04 22:56:00,72.3,71.7,30.20,WSW,254,0.0,0.0,98,0.00,,,0.25,Wunderground v.1.15,2013-07-05 02:56:00,
2013-07-04 23:02:00,72.3,72.0,30.20,East,98,0.0,1.0,99,0.00,,,0.25,Wunderground v.1.15,2013-07-05 03:02:00,
2013-07-04 23:08:00,72.4,71.8,30.20,East,97,0.0,0.0,98,0.00,,,0.25,Wunderground v.1.15,2013-07-05 03:08:00,
2013-07-04 23:14:00,72.4,71.8,30.20,SW,224,0.0,2.0,98,0.00,,,0.25,Wunderground v.1.15,2013-07-05 03:14:00,
2013-07-04 23:20:00,72.5,71.9,30.21,SW,222,0.0,0.0,98,0.00,,,0.25,Wunderground v.1.15,2013-07-05 03:20:00,
2013-07-04 23:26:00,72.5,71.9,30.21,SW,221,0.0,0.0,98,0.00,,,0.25,Wunderground v.1.15,2013-07-05 03:26:00,
2013-07-04 23:32:00,72.6,72.0,30.21,SSW,212,1.0,2.0,98,0.00,,,0.25,Wunderground v.1.15,2013-07-05 03:32:00,
2013-07-04 23:38:00,72.7,71.8,30.21,SW,215,1.0,1.0,97,0.00,,,0.25,Wunderground v.1.15,2013-07-05 03:38:00,
2013-07-04 23:44:00,72.7,71.8,30.21,SW,216,0.0,1.0,97,0.00,,,0.25,Wunderground v.1.15,2013-07-05 03:44:00,
2013-07-04 23:50:00,72.6,71.7,30.21,SW,215,0.0,0.0,97,0.00,,,0.25,Wunderground v.1.15,2013-07-05 03:50:00,
2013-07-04 23:55:00,72.6,71.7,30.21,SW,215,0.0,1.0,97,0.00,,,0.25,Wunderground v.1.15,2013-07-05 03:55:00,